When you browse on this site, cookies collect data to enhance your experience and personalize the content and advertising you see.
Visit our Privacy Policy to learn more. By continuing to use the site, you agree to this use of cookies and data.
  • In Czech Republic
  • List of Countries
  • For 7 days
  • Water Temperature
  • Weather Map
  • Weather Widgets
  • user-avatar
    Login

    Hourly Weather Canete

    Today, 28 March, Saturday

    Time Temperature Precipitation Wind Pressure Humidity
    00:00 +14°C° 0 mm 1 mps 754 mmHg 91%
    01:00 +14°C° 0 mm 1 mps 754 mmHg 93%
    02:00 +14°C° 0 mm 1 mps 754 mmHg 92%
    03:00 +13°C° 0 mm 1 mps 754 mmHg 92%
    04:00 +13°C° 0 mm 1 mps 754 mmHg 92%
    05:00 +14°C° 0 mm 1 mps 754 mmHg 89%
    06:00 +14°C° 0 mm 1 mps 755 mmHg 86%
    07:00 +15°C° 0 mm 1 mps 755 mmHg 83%
    08:00 +18°C° 0 mm 1 mps 755 mmHg 75%
    09:00 +19°C° 0 mm 1 mps 756 mmHg 67%
    10:00 +20°C° 0 mm 2 mps 756 mmHg 59%
    11:00 +21°C° 0 mm 2 mps 756 mmHg 57%
    12:00 +21°C° 0 mm 3 mps 756 mmHg 56%
    13:00 +21°C° 0 mm 4 mps 756 mmHg 54%
    14:00 +21°C° 0 mm 4 mps 756 mmHg 55%
    15:00 +20°C° 0 mm 4 mps 756 mmHg 57%
    16:00 +19°C° 0 mm 4 mps 756 mmHg 58%
    17:00 +17°C° 0 mm 3 mps 757 mmHg 67%
    18:00 +14°C° 0 mm 3 mps 757 mmHg 75%
    19:00 +12°C° 0 mm 3 mps 757 mmHg 84%
    20:00 +12°C° 0 mm 3 mps 757 mmHg 84%
    21:00 +12°C° 0 mm 3 mps 758 mmHg 85%
    22:00 +12°C° 0 mm 3 mps 758 mmHg 85%
    23:00 +12°C° 0 mm 3 mps 758 mmHg 84%

    Tomorrow, 29 March, Sunday

    Time Temperature Precipitation Wind Pressure Humidity
    00:00 +11°C° 0 mm 3 mps 758 mmHg 83%
    01:00 +11°C° 0 mm 3 mps 757 mmHg 82%
    02:00 +11°C° 0 mm 3 mps 757 mmHg 79%
    03:00 +10°C° 0 mm 3 mps 757 mmHg 77%
    04:00 +10°C° 0 mm 3 mps 757 mmHg 75%
    05:00 +10°C° 0 mm 3 mps 757 mmHg 73%
    06:00 +11°C° 0 mm 3 mps 758 mmHg 70%
    07:00 +11°C° 0 mm 3 mps 758 mmHg 68%
    08:00 +14°C° 0 mm 3 mps 758 mmHg 61%
    09:00 +17°C° 0 mm 4 mps 758 mmHg 53%
    10:00 +20°C° 0 mm 4 mps 758 mmHg 45%
    11:00 +20°C° 0 mm 5 mps 758 mmHg 46%
    12:00 +20°C° 0 mm 5 mps 758 mmHg 46%
    13:00 +20°C° 0 mm 6 mps 758 mmHg 47%
    14:00 +20°C° 0 mm 6 mps 758 mmHg 49%
    15:00 +19°C° 0 mm 6 mps 758 mmHg 52%
    16:00 +17°C° 0 mm 5 mps 758 mmHg 54%
    17:00 +15°C° 0 mm 5 mps 758 mmHg 61%
    18:00 +13°C° 0 mm 5 mps 759 mmHg 68%
    19:00 +12°C° 0 mm 4 mps 759 mmHg 75%
    20:00 +11°C° 0 mm 4 mps 759 mmHg 74%
    21:00 +11°C° 0 mm 4 mps 759 mmHg 72%
    22:00 +11°C° 0 mm 4 mps 759 mmHg 70%
    23:00 +10°C° 0 mm 4 mps 759 mmHg 71%

    Day after tomorrow, 30 March, Monday

    Time Temperature Precipitation Wind Pressure Humidity
    00:00 +10°C° 0 mm 3 mps 758 mmHg 73%
    01:00 +10°C° 0 mm 3 mps 758 mmHg 74%
    02:00 +10°C° 0 mm 3 mps 758 mmHg 73%
    03:00 +10°C° 0 mm 3 mps 758 mmHg 72%
    04:00 +8°C° 0 mm 4 mps 758 mmHg 71%
    05:00 +10°C° 0 mm 4 mps 758 mmHg 65%
    06:00 +10°C° 0 mm 4 mps 758 mmHg 59%
    07:00 +10°C° 0 mm 4 mps 758 mmHg 53%
    08:00 +13°C° 0 mm 4 mps 758 mmHg 46%
    09:00 +17°C° 0 mm 4 mps 758 mmHg 39%
    10:00 +19°C° 0 mm 4 mps 757 mmHg 32%
    11:00 +20°C° 0 mm 4 mps 757 mmHg 33%
    12:00 +21°C° 0 mm 5 mps 757 mmHg 34%
    13:00 +21°C° 0 mm 5 mps 757 mmHg 35%
    14:00 +20°C° 0 mm 5 mps 756 mmHg 39%
    15:00 +20°C° 0 mm 5 mps 756 mmHg 44%
    16:00 +19°C° 0 mm 5 mps 756 mmHg 48%
    17:00 +16°C° 0 mm 5 mps 756 mmHg 55%
    18:00 +14°C° 0 mm 4 mps 756 mmHg 63%
    19:00 +12°C° 0 mm 4 mps 756 mmHg 70%
    20:00 +12°C° 0 mm 4 mps 756 mmHg 70%
    21:00 +12°C° 0 mm 4 mps 756 mmHg 70%
    22:00 +12°C° 0 mm 3 mps 757 mmHg 70%
    23:00 +11°C° 0 mm 3 mps 756 mmHg 71%

    31 March, Tuesday

    Time Temperature Precipitation Wind Pressure Humidity
    00:00 +11°C° 0 mm 3 mps 756 mmHg 73%
    01:00 +10°C° 0 mm 3 mps 756 mmHg 74%
    02:00 +10°C° 0 mm 3 mps 756 mmHg 72%
    03:00 +10°C° 0 mm 3 mps 756 mmHg 69%
    04:00 +10°C° 0 mm 3 mps 756 mmHg 67%
    05:00 +10°C° 0 mm 3 mps 756 mmHg 66%
    06:00 +10°C° 0 mm 3 mps 756 mmHg 65%
    07:00 +11°C° 0 mm 3 mps 757 mmHg 64%
    08:00 +14°C° 0 mm 3 mps 757 mmHg 56%
    09:00 +17°C° 0 mm 3 mps 757 mmHg 48%
    10:00 +20°C° 0 mm 4 mps 757 mmHg 40%
    11:00 +20°C° 0 mm 4 mps 757 mmHg 42%
    12:00 +20°C° 0 mm 5 mps 757 mmHg 44%
    13:00 +21°C° 0 mm 5 mps 757 mmHg 47%
    14:00 +20°C° 0 mm 5 mps 757 mmHg 51%
    15:00 +19°C° 0 mm 5 mps 756 mmHg 56%
    16:00 +17°C° 0 mm 6 mps 756 mmHg 61%
    17:00 +15°C° 0 mm 5 mps 757 mmHg 70%
    18:00 +13°C° 0 mm 5 mps 757 mmHg 78%
    19:00 +11°C° 0 mm 4 mps 758 mmHg 86%
    20:00 +11°C° 0 mm 4 mps 758 mmHg 85%
    21:00 +11°C° 0 mm 4 mps 758 mmHg 84%
    22:00 +10°C° 0 mm 3 mps 759 mmHg 83%
    23:00 +10°C° 0 mm 3 mps 759 mmHg 84%

    1 April, Wednesday

    Time Temperature Precipitation Wind Pressure Humidity
    00:00 +10°C° 0 mm 3 mps 759 mmHg 84%
    01:00 +10°C° 0 mm 3 mps 759 mmHg 85%
    02:00 +10°C° 0 mm 3 mps 759 mmHg 84%
    03:00 +10°C° 0 mm 3 mps 759 mmHg 84%
    04:00 +10°C° 0 mm 3 mps 759 mmHg 83%
    05:00 +10°C° 0 mm 3 mps 759 mmHg 80%
    06:00 +11°C° 0 mm 3 mps 760 mmHg 76%
    07:00 +11°C° 0 mm 3 mps 760 mmHg 72%
    08:00 +14°C° 0 mm 3 mps 760 mmHg 62%
    09:00 +17°C° 0 mm 4 mps 760 mmHg 52%
    10:00 +20°C° 0 mm 4 mps 760 mmHg 42%
    11:00 +20°C° 0 mm 5 mps 760 mmHg 41%
    12:00 +21°C° 0 mm 5 mps 760 mmHg 40%
    13:00 +22°C° 0 mm 6 mps 760 mmHg 39%
    14:00 +21°C° 0 mm 6 mps 760 mmHg 41%
    15:00 +21°C° 0 mm 6 mps 760 mmHg 44%
    16:00 +20°C° 0 mm 6 mps 759 mmHg 47%
    17:00 +17°C° 0 mm 5 mps 760 mmHg 55%
    18:00 +15°C° 0 mm 5 mps 760 mmHg 64%
    19:00 +13°C° 0 mm 4 mps 760 mmHg 72%
    20:00 +13°C° 0 mm 4 mps 760 mmHg 73%
    21:00 +13°C° 0 mm 4 mps 760 mmHg 75%
    22:00 +12°C° 0 mm 4 mps 761 mmHg 76%
    23:00 +12°C° 0 mm 4 mps 760 mmHg 75%

    2 April, Thursday

    Time Temperature Precipitation Wind Pressure Humidity
    00:00 +12°C° 0 mm 3 mps 760 mmHg 74%
    01:00 +12°C° 0 mm 3 mps 760 mmHg 73%
    02:00 +11°C° 0 mm 3 mps 760 mmHg 71%
    03:00 +11°C° 0 mm 4 mps 759 mmHg 69%
    04:00 +11°C° 0 mm 4 mps 759 mmHg 67%
    05:00 +12°C° 0 mm 4 mps 759 mmHg 64%
    06:00 +12°C° 0 mm 4 mps 759 mmHg 62%
    07:00 +13°C° 0 mm 3 mps 759 mmHg 59%
    08:00 +15°C° 0 mm 4 mps 758 mmHg 51%
    09:00 +19°C° 0 mm 4 mps 758 mmHg 42%
    10:00 +22°C° 0 mm 5 mps 758 mmHg 34%
    11:00 +23°C° 0 mm 5 mps 758 mmHg 34%
    12:00 +25°C° 0 mm 5 mps 757 mmHg 34%
    13:00 +26°C° 0 mm 5 mps 757 mmHg 33%
    14:00 +25°C° 0 mm 5 mps 757 mmHg 35%
    15:00 +25°C° 0 mm 5 mps 756 mmHg 38%
    16:00 +23°C° 0 mm 5 mps 756 mmHg 40%
    17:00 +21°C° 0 mm 5 mps 756 mmHg 46%
    18:00 +19°C° 0 mm 5 mps 756 mmHg 52%
    19:00 +15°C° 0 mm 4 mps 757 mmHg 58%
    20:00 +15°C° 0 mm 4 mps 757 mmHg 58%
    21:00 +15°C° 0 mm 4 mps 757 mmHg 57%
    22:00 +15°C° 0 mm 4 mps 757 mmHg 57%
    23:00 +15°C° 0 mm 4 mps 757 mmHg 58%
    Show more